Location: *
(41.0833°N, 73.4167°W)
Time: 15:44:11
(UTC+00:00)

PAYLOAD A - Pass Details

Date: 22 October 2019
Orbit: 692 x 832 km, 98.3° (Epoch: 21 November)

Event Time Altitude Azimuth Distance (km) Brightness Sun altitude
Rises 09:03:40 0° 14° (NNE) 3,143 7.5 -25.0°
Reaches altitude 10° 09:05:54 10° 16° (NNE) 2,236 6.7 -24.5°
Maximum altitude 09:10:50 76° 103° (ESE) 776 4.0 -23.6°
Drops below altitude 10° 09:15:54 10° 189° (S) 2,309 6.3 -22.7°
Sets 09:18:15 0° 191° (S) 3,253 7.1 -22.2°
